[[{"header":{"parameterUnit":"m.s-1","parameterCategory":1,"la1":30.2991,"la2":30.254,"lo1":-89.0895,"lo2":-89.0444,"dy":0.0017,"dx":0.0017,"nx":28,"ny":28,"refTime":"2025-01-16T03:00:00:Z","depth":0,"parameterNumber":2,"parameterNumberName":"U-component_of_WINDS"},"data":[0,0,0,0,0,0,0,0,0,0,0,0,0,0,0,0,0,0,0,0,0,0,0,0,0,0,0,0,0,0,0,0,0,0,0,0,0,0,0,0,0,0,0,0,0,0,0,0,0,0,0,0,0,0,0,0,0,0,-3.2729,-3.2728,0,-3.2663,-3.2663,-3.2662,-3.2522,-3.252,-3.2517,-3.2514,-3.2452,-3.2453,-3.2454,0,0,0,0,0,0,0,0,0,0,0,0,0,-3.2739,-3.274,-3.2729,-3.2728,-3.2727,-3.2663,-3.2663,-3.2662,-3.2523,-3.2519,-3.2516,-3.2513,-3.2451,-3.2453,-3.2454,0,0,0,0,0,0,0,0,0,0,0,0,0,-3.2711,-3.274,-3.2729,-3.265,-3.2642,-3.2664,-3.2663,-3.2661,-3.2524,-3.2519,-3.2515,-3.2511,-3.2451,-3.2452,-3.2454,-3.2548,0,0,-3.2458,-3.2459,0,0,0,0,0,0,0,0,-3.2712,-3.271,-3.2662,-3.2656,-3.2647,-3.2596,-3.2643,-3.2624,-3.2525,-3.2569,-3.2514,-3.2509,-3.2504,-3.2501,-3.2498,-3.2545,-3.2542,-3.2459,-3.2459,-3.246,-3.246,0,0,0,0,0,0,0,-3.2714,-3.2712,-3.2703,-3.2662,-3.2652,-3.262,-3.2611,-3.2639,-3.2561,-3.2565,-3.2554,-3.2548,-3.2499,-3.2497,-3.2495,-3.2541,-3.2458,-3.246,-3.2461,-3.2461,-3.2667,-3.2671,0,0,0,0,0,0,-3.2727,-3.2715,-3.2705,-3.2701,-3.267,-3.2623,-3.2613,-3.2617,-3.256,-3.2547,-3.2552,-3.2542,-3.2496,-3.2494,-3.2493,-3.2602,-3.246,-3.2461,-3.2462,-3.2662,-3.2668,-3.2673,0,0,0,0,0,0,-3.2728,-3.2728,-3.2708,-3.2705,-3.27,-3.2627,-3.2633,-3.2618,-3.2616,-3.2551,-3.2537,-3.2564,-3.2493,-3.249,-3.2536,-3.2598,-3.2462,-3.2463,-3.2657,-3.2664,-3.267,-3.282,0,0,0,0,0,0,-3.2729,-3.2729,-3.2762,-3.2707,-3.2701,-3.2751,-3.2636,-3.262,-3.2618,-3.2605,-3.2558,-3.2546,-3.2489,-3.2534,-3.2537,-3.2597,-3.2465,-3.2651,-3.266,-3.2668,-3.281,-3.2832,-3.285,0,0,0,0,0,-3.273,-3.2807,-3.2765,-3.2764,-3.2741,-3.2754,-3.2751,-3.2682,-3.2624,-3.2658,-3.2617,-3.2548,-3.259,-3.254,-3.2542,-3.2604,-3.2647,-3.2658,-3.2668,-3.2801,-3.2827,-3.285,0,0,0,0,0,0,-3.2873,-3.2798,-3.275,-3.2812,-3.2791,-3.2731,-3.2772,-3.2712,-3.2708,-3.2696,-3.2612,-3.2603,-3.2661,-3.2636,-3.2582,-3.2694,-3.2608,-3.2619,-3.2708,-3.2733,-3.2753,-3.2759,-3.2466,0,0,0,0,0,-3.2911,-3.2927,-3.2861,-3.2922,-3.2914,-3.2845,-3.2848,-3.2798,-3.2773,-3.2763,-3.2725,-3.2705,-3.2714,-3.2721,-3.2726,-3.2805,-3.2795,-3.2848,-3.2869,-3.2886,-3.2897,-3.2941,-3.2966,-3.2707,-3.2707,-3.2706,0,0,-3.2991,-3.2952,-3.2968,-3.295,-3.2927,-3.2948,-3.2839,-3.2864,-3.2879,-3.2767,-3.2809,-3.278,-3.2752,-3.2816,-3.2842,-3.2798,-3.2967,-3.2899,-3.2913,-3.2915,-3.2955,-3.2979,-3.3001,-3.2714,-3.2712,-3.2711,0,0,-3.3148,-3.3119,-3.3168,-3.3148,-3.3115,-3.3069,-3.3081,-3.3031,-3.3008,-3.3047,-3.2965,-3.2983,-3.2999,-3.2983,-3.2978,-3.3132,-3.307,-3.3136,-3.3243,-3.3287,-3.3308,-3.3325,-3.3384,-3.3406,-3.3147,-3.3147,-3.3148,0,-3.3253,-3.3278,-3.3201,-3.3233,-3.3229,-3.3128,-3.3179,-3.3163,-3.3135,-3.3136,-3.3085,-3.3106,-3.3079,-3.314,-3.3178,-3.3175,-3.319,-3.3142,-3.331,-3.3328,-3.3343,-3.3399,-3.3421,-3.3156,-3.3155,-3.3154,-3.3153,0,-3.341,-3.343,-3.3474,-3.3448,-3.3449,-3.3491,-3.3422,-3.3433,-3.3382,-3.3343,-3.3387,-3.3351,-3.3349,-3.3359,-3.3309,-3.3414,-3.3388,-3.3325,-3.3237,-3.3378,-3.3429,-3.3449,-3.3168,-3.3165,-3.3162,-3.316,0,0,-3.3656,-3.3588,-3.3606,-3.3595,-3.3552,-3.3567,-3.3605,-3.3601,-3.3614,-3.3597,-3.363,-3.3647,-3.359,-3.3584,-3.3532,-3.357,-3.37,-3.3503,-3.3501,-3.3544,-3.3817,-3.3867,-3.3893,-3.3657,-3.3661,-3.3663,-3.3821,0,-3.3806,-3.3866,-3.3799,-3.3874,-3.3894,-3.3799,-3.3832,-3.3812,-3.3776,-3.3789,-3.3749,-3.3765,-3.3686,-3.3682,-3.3715,-3.3677,-3.3754,-3.3664,-3.369,-3.3692,-3.3703,-3.3919,-3.3971,-3.4121,-3.384,-3.3843,-3.3845,0,-3.3989,-3.3982,-3.406,-3.4015,-3.402,-3.4052,-3.4045,-3.4057,-3.4033,-3.4004,-3.3999,-3.3937,-3.3974,-3.3886,-3.3938,-3.3879,-3.3885,-3.3868,-3.3873,-3.3875,-3.378,-3.3931,-3.4167,-3.4192,-3.3875,-3.3873,-3.3871,0,-3.4166,-3.4175,-3.4224,-3.4217,-3.4164,-3.419,-3.4169,-3.414,-3.4143,-3.4138,-3.414,-3.4139,-3.4139,-3.4141,-3.4082,-3.4023,-3.4143,-3.405,-3.4124,-3.4126,-3.4156,-3.4156,-3.4401,-3.4155,-3.4154,-3.4154,-3.4153,0,-3.4343,-3.4395,-3.4303,-3.4334,-3.439,-3.4313,-3.4372,-3.4342,-3.4318,-3.4342,-3.4259,-3.4285,-3.4203,-3.422,-3.4174,-3.4227,-3.4226,-3.4207,-3.4195,-3.4217,-3.422,-3.4223,-3.4212,-3.416,-3.4158,-3.4157,-3.4156,0,-3.4551,-3.4491,-3.4538,-3.4485,-3.4473,-3.4518,-3.4474,-3.4501,-3.446,-3.4493,-3.4496,-3.4433,-3.445,-3.439,-3.4396,-3.4365,-3.4445,-3.4413,-3.4453,-3.4445,-3.4524,-3.452,-3.4783,-3.4815,-3.4545,-3.4548,-3.455,0,-3.467,-3.4708,-3.4659,-3.4669,-3.4654,-3.4671,-3.4674,-3.46,-3.4607,-3.4584,-3.4615,-3.4625,-3.4629,-3.4661,-3.4617,-3.4623,-3.4593,-3.4685,-3.4594,-3.4616,-3.46,-3.46,-3.4605,-3.4705,-3.4708,-3.4711,-3.4713,0,-3.4888,-3.4857,-3.4863,-3.4862,-3.4868,-3.4862,-3.4852,-3.4865,-3.4786,-3.4799,-3.4815,-3.4818,-3.4826,-3.4838,-3.4835,-3.4816,-3.4754,-3.4742,-3.476,-3.4785,-3.4809,-3.4801,-3.4509,-3.4737,-3.4735,-3.4733,-3.4732,-3.4731,-3.5057,-3.5088,-3.506,-3.5071,-3.5055,-3.5048,-3.5072,-3.5035,-3.5046,-3.5046,-3.5002,-3.5028,-3.5005,-3.4994,-3.4982,-3.5003,-3.4961,-3.4986,-3.4993,-3.5002,-3.5017,-3.4802,-3.5002,-3.5001,-3.5,-3.4999,-3.4999,0,-3.5275,-3.5252,-3.5263,-3.5251,-3.5262,-3.5199,-3.5185,-3.5199,-3.5222,-3.5205,-3.5211,-3.5232,-3.5244,-3.5201,-3.5208,-3.5233,-3.5205,-3.5238,-3.5237,-3.5235,-3.5053,-3.5038,-3.5261,-3.5261,-3.5261,-3.5261,-3.5261,-3.5261,-3.5389,-3.544,-3.5406,-3.5449,-3.5425,-3.545,-3.5448,-3.5442,-3.5428,-3.5455,-3.5464,-3.5435,-3.541,-3.5414,-3.5424,-3.5411,-3.5419,-3.5463,-3.5442,-3.5273,-3.5247,-3.5223,-3.5209,-3.5465,-3.5465,-3.5622,-3.5624,-3.5625]},{"header":{"parameterUnit":"m.s-1","parameterCategory":1,"la1":30.2991,"la2":30.254,"lo1":-89.0895,"lo2":-89.0444,"dy":0.0017,"dx":0.0017,"nx":28,"ny":28,"refTime":"2025-01-16T03:00:00:Z","depth":0,"parameterNumber":3,"parameterNumberName":"V-component_of_WINDS"},"data":[0,0,0,0,0,0,0,0,0,0,0,0,0,0,0,0,0,0,0,0,0,0,0,0,0,0,0,0,0,0,0,0,0,0,0,0,0,0,0,0,0,0,0,0,0,0,0,0,0,0,0,0,0,0,0,0,0,0,-1.183,-1.183,0,-1.1843,-1.1843,-1.1843,-1.1811,-1.181,-1.1809,-1.1809,-1.1822,-1.1824,-1.1825,0,0,0,0,0,0,0,0,0,0,0,0,0,-1.1777,-1.1779,-1.183,-1.183,-1.1831,-1.1843,-1.1843,-1.1843,-1.1812,-1.181,-1.1809,-1.1808,-1.1822,-1.1823,-1.1825,0,0,0,0,0,0,0,0,0,0,0,0,0,-1.1796,-1.1779,-1.183,-1.1816,-1.1815,-1.1843,-1.1843,-1.1843,-1.1812,-1.181,-1.1809,-1.1807,-1.1821,-1.1823,-1.1825,-1.1867,0,0,-1.1831,-1.1832,0,0,0,0,0,0,0,0,-1.1795,-1.1798,-1.1818,-1.1817,-1.1816,-1.1824,-1.183,-1.1852,-1.1812,-1.1813,-1.1808,-1.1807,-1.1824,-1.1826,-1.1831,-1.1868,-1.1869,-1.1831,-1.1832,-1.1833,-1.1834,0,0,0,0,0,0,0,-1.1794,-1.1798,-1.1835,-1.1818,-1.1817,-1.1809,-1.181,-1.1834,-1.1827,-1.1813,-1.1811,-1.1813,-1.1823,-1.183,-1.1832,-1.1869,-1.1831,-1.1833,-1.1834,-1.1835,-1.194,-1.1942,0,0,0,0,0,0,-1.1795,-1.1797,-1.1835,-1.1836,-1.1802,-1.1811,-1.1812,-1.1823,-1.1827,-1.1826,-1.1814,-1.1811,-1.1827,-1.1829,-1.1832,-1.1882,-1.1833,-1.1835,-1.1836,-1.1939,-1.1941,-1.1943,0,0,0,0,0,0,-1.1794,-1.1798,-1.1834,-1.1816,-1.182,-1.1814,-1.1826,-1.1824,-1.1831,-1.1827,-1.1826,-1.1822,-1.1826,-1.1829,-1.1859,-1.1882,-1.1836,-1.1838,-1.1937,-1.1939,-1.1942,-1.1983,0,0,0,0,0,0,-1.1792,-1.1798,-1.1815,-1.1816,-1.1821,-1.1861,-1.1827,-1.1825,-1.1834,-1.183,-1.1834,-1.1834,-1.1825,-1.1856,-1.1861,-1.1884,-1.1839,-1.1935,-1.1938,-1.1941,-1.198,-1.1987,-1.1993,0,0,0,0,0,-1.179,-1.1826,-1.1816,-1.182,-1.1841,-1.1863,-1.1865,-1.1855,-1.1836,-1.1852,-1.185,-1.1833,-1.1878,-1.1859,-1.1864,-1.1889,-1.1933,-1.1937,-1.1941,-1.1977,-1.1985,-1.1993,0,0,0,0,0,0,-1.1828,-1.1826,-1.1814,-1.1851,-1.1857,-1.1857,-1.1878,-1.1864,-1.1876,-1.1872,-1.1858,-1.1859,-1.1892,-1.1893,-1.1872,-1.193,-1.1903,-1.1908,-1.1928,-1.1936,-1.1943,-1.1943,-1.1841,0,0,0,0,0,-1.184,-1.1858,-1.1855,-1.1888,-1.1891,-1.1884,-1.1893,-1.1884,-1.189,-1.1893,-1.1892,-1.1899,-1.1914,-1.1925,-1.1939,-1.1979,-1.1979,-1.1998,-1.2004,-1.201,-1.2015,-1.2036,-1.2045,-1.1955,-1.1955,-1.1955,0,0,-1.1866,-1.1867,-1.188,-1.1895,-1.1899,-1.1918,-1.1887,-1.1908,-1.1922,-1.1896,-1.1924,-1.1924,-1.193,-1.1965,-1.198,-1.1967,-1.2039,-1.2014,-1.2019,-1.2021,-1.2041,-1.2049,-1.2057,-1.1957,-1.1957,-1.1956,0,0,-1.1924,-1.1926,-1.1954,-1.1958,-1.1963,-1.1958,-1.1964,-1.1966,-1.1965,-1.1993,-1.1974,-1.199,-1.2017,-1.2022,-1.2028,-1.2085,-1.2071,-1.209,-1.2125,-1.2146,-1.2153,-1.216,-1.2181,-1.2189,-1.2095,-1.2095,-1.2095,0,-1.1956,-1.1984,-1.197,-1.1993,-1.2,-1.1976,-1.2005,-1.2009,-1.2019,-1.2025,-1.2009,-1.2042,-1.2044,-1.208,-1.2094,-1.2099,-1.2107,-1.2091,-1.2153,-1.2159,-1.2165,-1.2186,-1.2194,-1.2097,-1.2097,-1.2097,-1.2096,0,-1.2023,-1.2043,-1.2064,-1.2075,-1.2084,-1.2109,-1.2099,-1.2111,-1.21,-1.2096,-1.2125,-1.2126,-1.214,-1.2147,-1.2137,-1.2182,-1.2173,-1.2156,-1.2129,-1.2176,-1.2196,-1.2203,-1.2101,-1.21,-1.2099,-1.2099,0,0,-1.2108,-1.2108,-1.2117,-1.2121,-1.2124,-1.2139,-1.2163,-1.2176,-1.2186,-1.2193,-1.2213,-1.2236,-1.2219,-1.2226,-1.2216,-1.2234,-1.2281,-1.2214,-1.2214,-1.2228,-1.2331,-1.2346,-1.2355,-1.227,-1.2271,-1.2273,-1.2331,0,-1.2166,-1.2207,-1.2194,-1.2236,-1.2254,-1.223,-1.2251,-1.2255,-1.2251,-1.2266,-1.2261,-1.2278,-1.2254,-1.2258,-1.2275,-1.2272,-1.2302,-1.2267,-1.229,-1.2291,-1.2291,-1.2365,-1.2381,-1.2437,-1.2338,-1.2339,-1.234,0,-1.224,-1.225,-1.2293,-1.2293,-1.23,-1.2319,-1.233,-1.2343,-1.2347,-1.2343,-1.235,-1.2336,-1.2359,-1.233,-1.2362,-1.2339,-1.2347,-1.2346,-1.2348,-1.2352,-1.232,-1.2373,-1.2454,-1.2463,-1.2352,-1.2351,-1.235,0,-1.2299,-1.2323,-1.2352,-1.2356,-1.2356,-1.237,-1.237,-1.2373,-1.2381,-1.239,-1.2396,-1.2407,-1.2414,-1.2424,-1.2413,-1.2392,-1.2447,-1.2417,-1.2445,-1.2445,-1.246,-1.2459,-1.2545,-1.2461,-1.2461,-1.2461,-1.2461,0,-1.2367,-1.2395,-1.2378,-1.2396,-1.2427,-1.2411,-1.2441,-1.2439,-1.2441,-1.2458,-1.2437,-1.2454,-1.2438,-1.2453,-1.2444,-1.2473,-1.2475,-1.2473,-1.2471,-1.2476,-1.2477,-1.2483,-1.248,-1.2463,-1.2463,-1.2462,-1.2462,0,-1.2439,-1.2429,-1.246,-1.2457,-1.2456,-1.2479,-1.2477,-1.2493,-1.2487,-1.2509,-1.2513,-1.2504,-1.252,-1.251,-1.2526,-1.252,-1.2558,-1.2549,-1.2557,-1.2555,-1.2585,-1.2583,-1.268,-1.2692,-1.2598,-1.2599,-1.26,0,-1.2485,-1.2505,-1.2504,-1.2514,-1.2516,-1.2533,-1.2541,-1.2525,-1.2535,-1.254,-1.2556,-1.2571,-1.2582,-1.2609,-1.2604,-1.2617,-1.2609,-1.2642,-1.2611,-1.2616,-1.2612,-1.2612,-1.2614,-1.265,-1.2651,-1.2651,-1.2652,0,-1.2566,-1.256,-1.2573,-1.2584,-1.2594,-1.2602,-1.2608,-1.2618,-1.2602,-1.2614,-1.263,-1.2639,-1.2655,-1.267,-1.268,-1.268,-1.2665,-1.2661,-1.2669,-1.2676,-1.268,-1.268,-1.2576,-1.266,-1.2659,-1.2659,-1.2658,-1.2658,-1.2628,-1.2645,-1.2647,-1.2662,-1.2665,-1.2671,-1.2686,-1.2682,-1.2695,-1.2707,-1.2697,-1.2717,-1.2719,-1.2731,-1.2733,-1.2748,-1.2735,-1.2746,-1.2749,-1.2752,-1.2757,-1.2676,-1.275,-1.2749,-1.2749,-1.2749,-1.2749,0,-1.271,-1.271,-1.2723,-1.2732,-1.2744,-1.2726,-1.2731,-1.2743,-1.276,-1.2763,-1.2774,-1.2793,-1.2807,-1.2802,-1.2814,-1.2828,-1.2821,-1.2832,-1.2832,-1.2832,-1.2767,-1.2761,-1.2837,-1.2837,-1.2837,-1.2837,-1.2837,-1.2837,-1.2755,-1.2783,-1.2777,-1.2806,-1.2805,-1.2825,-1.283,-1.2835,-1.2837,-1.2859,-1.2871,-1.2867,-1.2867,-1.2879,-1.2891,-1.2889,-1.2895,-1.291,-1.2905,-1.2845,-1.2837,-1.2829,-1.2822,-1.2911,-1.2911,-1.2969,-1.297,-1.297]}]]